Flag for Western Sahara Weather past 2 weeks in El Aaiún, Western Sahara

Now
81 °F

Passing clouds.


Feels Like: 81 °F
Forecast: 68 / 81 °F
Wind: 23 mph from Northeast

Location: Laayoune/Hassan Isl

Current Time: Jul 23, 2014 at 2:04:23 PM

Latest Report: Jul 23, 2014 at 1:00 PM


Visibility: N/A

Pressure: 30.01 "Hg

Humidity: 48%

Dew point: 59 °F

Location of El AaiúnLocation

Historic Weather in El Aaiún — Graph

°F

El Aaiún temperature yesterday

Maximum temperature yesterday: 82 °F (at 1:00 PM)
Minimum temperature yesterday: 68 °F (at 12:00 AM)
Average temperature yesterday: 74 °F

Past Weeks' High & Low Weather Summary

 TemperatureHumidityPressure
High88 °F (Jul 10, 3:00 PM)94% (Jul 10, 12:02 AM)30.12 "Hg (Jul 10, 12:02 AM)
Low66 °F (Jul 14, 12:00 AM)40% (Jul 10, 3:00 PM)29.92 "Hg (Jul 8, 4:00 PM)
Average74 °F69%30.02 "Hg
* Reported Jul 8 12:00 Noon — Jul 23 12:00 Noon, El Aaiún, Weather by CustomWeather, © 2014

Note: Actual official high and low records may vary slightly from our data, if they occured in-between our weather recording intervals... More about our weather records

Advertising

El Aaiún weather history for previous 24 hours

 ConditionsComfort  
Time TempWeatherWind HumidityBarometerVisibility
12:00 PM
Jul 23
79 °FPassing clouds.21 mph51%30.01 "HgN/A
11:00 AM79 °FWarm.23 mph51%30.04 "Hg6 mi
10:00 AM75 °FScattered clouds.23 mph57%30.01 "HgN/A
9:00 AM72 °FScattered clouds.23 mph69%30.01 "HgN/A
8:00 AM70 °FPassing clouds.20 mph78%30.01 "HgN/A
6:00 AM68 °FPassing clouds.13 mph83%29.98 "Hg5 mi
5:00 AM68 °FPassing clouds.15 mph83%29.98 "HgN/A
4:00 AM68 °FPassing clouds.14 mph83%29.98 "Hg5 mi
3:00 AM68 °FPassing clouds.14 mph83%29.98 "Hg5 mi
2:00 AM68 °FPassing clouds.17 mph83%29.98 "Hg5 mi
1:00 AM68 °FPassing clouds.17 mph83%29.98 "Hg5 mi
12:00 AM68 °FPassing clouds.16 mph78%30.04 "HgN/A
5:00 PM
Jul 22
82 °FWarm.24 mph51%29.95 "Hg5 mi
4:00 PM82 °FSunny.25 mph48%29.95 "Hg10 mi
3:00 PM82 °FSunny.23 mph48%29.95 "Hg10 mi
2:00 PM82 °FSunny.21 mph51%29.95 "Hg10 mi
Weather by CustomWeather, © 2014

See weather overviewHow to use our weather pages